User: anonymous   Login
Location: Ostrava
(49.8330°N, 18.2830°E)
Time: 08:37:55
(UTC+02:00)
Language:

NOAA 19 - Orbit

View from above orbital plane
View from above orbital plane
View from above satellite
View from above satellite

Ground track
Ground track

The orbit data is extracted from the following two-line orbital elements,

1 33591U 09005A   15214.43995535  .00000139  00000-0  10052-3 0  9995
2 33591 098.9927 164.4373 0014903 042.9526 317.2806 14.11961876334012
Epoch (UTC): 02 August 2015 10:33:32
Eccentricity: 0.0014903
inclination: 98.9927°
perigee height: 842 km
apogee height: 863 km
right ascension of ascending node: 164.4373°
argument of perigee: 42.9526°
revolutions per day: 14.11961876
mean anomaly at epoch: 317.2806°
orbit number at epoch: 33401

The dashed part of the orbit path shows where the satellite is in the earth's shadow,  

DLR